Weather History for Burlington, IA

Change the Weather History Date:

Friday, February 1, 2013

  Actual Average Record
Temperature  
Mean Temperature 12 °F 27 °F  
Max Temperature 24 °F 36 °F 61 °F (1911)
Min Temperature -1 °F 18 °F -14 °F (1951)
Degree Days  
Heating Degree Days 53 38  
Month to date heating degree days 53 38  
Since 1 July heating degree days 3412 3439  
Cooling Degree Days 0 0  
Month to date cooling degree days 0 0  
Year to date cooling degree days 0 0  
Moisture  
Dew Point 0 °F    
Average Humidity 71    
Maximum Humidity 84    
Minimum Humidity 58    
Precipitation  
Precipitation 0.00 in 0.05 in 0.39 in (2014)
Month to date precipitation 0.00 0.05  
Year to date precipitation 2.10 1.29  
Sea Level Pressure  
Sea Level Pressure 30.36 in    
Wind  
Wind Speed 10 mph (WSW)    
Max Wind Speed 20 mph    
Max Gust Speed 28 mph    
Visibility 10 miles    
Events      
T = Trace of Precipitation, MM = Missing Value Source: NWS Daily Summary

Daily Weather History Graph

Daily Weather History Graph

Search for Another Location

Airport:

Trip Planner

Search our weather history database for the weather conditions in past years. The results will help you decide how hot, cold, wet, or windy it might be!

Date:

Astronomy

Feb. 01, 2013 Rise Set
Actual Time 7:14 AM CST 5:22 PM CST
Civil Twilight 6:45 AM CST 5:51 PM CST
Nautical Twilight 6:12 AM CST 6:24 PM CST
Astronomical Twilight 5:40 AM CST 6:56 PM CST
Moon 11:32 PM CST (2/1) 9:45 AM CST (2/1)
Length of Visible Light 11h 05m
Length of Day
10h 08m
Waning Gibbous, 70% of the Moon is Illuminated
Feb 1
Waning Gibbous
Feb 3
Last Quarter
Feb 10
New
Feb 17
First Quarter
Feb 25
Full

Hourly Weather History & Observations

Time (CST) Temp. Windchill Dew Point Humidity Pressure Visibility Wind Dir Wind Speed Gust Speed Precip Events Conditions
12:53 AM 3.9 °F -13.0 °F -5.1 °F 66% 30.40 in 10.0 mi WNW 12.7 mph - N/A   Mostly Cloudy
1:25 AM 3.2 °F -13.9 °F -5.8 °F 66% 30.36 in 10.0 mi WNW 12.7 mph 24.2 mph N/A   Partly Cloudy
1:53 AM 3.0 °F -12.5 °F -5.1 °F 69% 30.43 in 10.0 mi West 10.4 mph - N/A   Mostly Cloudy
2:15 AM 1.4 °F -14.5 °F -5.8 °F 72% 30.38 in 10.0 mi WNW 10.4 mph 18.4 mph N/A   Scattered Clouds
2:53 AM 1.9 °F -12.9 °F -6.0 °F 69% 30.43 in 10.0 mi WNW 9.2 mph - N/A   Clear
3:53 AM 1.0 °F -14.0 °F -7.1 °F 69% 30.43 in 10.0 mi WNW 9.2 mph - N/A   Clear
4:53 AM 1.0 °F -12.9 °F -7.1 °F 69% 30.43 in 10.0 mi WNW 8.1 mph - N/A   Clear
5:53 AM -0.4 °F -13.4 °F -7.6 °F 72% 30.39 in 10.0 mi WNW 6.9 mph - N/A   Clear
6:53 AM -0.9 °F -12.7 °F -8.0 °F 72% 30.46 in 10.0 mi WNW 5.8 mph - N/A   Clear
7:53 AM -0.9 °F -14.1 °F -8.0 °F 72% 30.47 in 10.0 mi WNW 6.9 mph - N/A   Clear
8:53 AM -0.0 °F -14.2 °F -8.0 °F 69% 30.48 in 10.0 mi WNW 8.1 mph - N/A   Clear
9:53 AM 1.9 °F -9.2 °F -7.1 °F 66% 30.48 in 10.0 mi Variable 5.8 mph - N/A   Clear
10:53 AM 3.9 °F - -6.0 °F 64% 30.47 in 10.0 mi Calm Calm - N/A   Clear
11:53 AM 6.1 °F -6.8 °F -4.0 °F 63% 30.45 in 10.0 mi West 8.1 mph - N/A   Clear
12:53 PM 10.0 °F -4.5 °F -0.9 °F 61% 30.41 in 10.0 mi SW 11.5 mph - N/A   Partly Cloudy
1:53 PM 12.0 °F -2.7 °F 1.0 °F 61% 30.39 in 10.0 mi SW 12.7 mph - N/A   Overcast
2:53 PM 12.9 °F 0.7 °F -0.0 °F 56% 30.35 in 10.0 mi SW 9.2 mph - N/A   Overcast
3:53 PM 14.0 °F 2.9 °F 3.0 °F 62% 30.34 in 8.0 mi SW 8.1 mph - N/A   Overcast
4:53 PM 16.0 °F 6.3 °F 3.9 °F 59% 30.32 in 6.0 mi South 6.9 mph - N/A   Haze
5:53 PM 17.1 °F 4.3 °F 6.1 °F 62% 30.29 in 10.0 mi South 11.5 mph - N/A   Overcast
6:53 PM 18.0 °F 4.8 °F 8.1 °F 65% 30.26 in 10.0 mi South 12.7 mph - N/A   Overcast
7:53 PM 19.9 °F 6.2 °F 9.0 °F 62% 30.23 in 10.0 mi South 15.0 mph - N/A   Overcast
8:53 PM 21.0 °F 7.6 °F 12.0 °F 68% 30.20 in 10.0 mi SSW 15.0 mph - N/A   Overcast
9:53 PM 21.0 °F 6.6 °F 16.0 °F 81% 30.20 in 10.0 mi SSW 17.3 mph - N/A   Overcast
10:53 PM 21.9 °F 10.4 °F 17.1 °F 82% 30.18 in 10.0 mi SSW 11.5 mph - N/A   Overcast
11:53 PM 24.1 °F 12.0 °F 17.1 °F 75% 30.16 in 10.0 mi SSW 13.8 mph - N/A   Overcast